This demonstration page uses our WeatherBlox Daily Observations layout. Learn more.

Hourly Observations for October 16, 2017

Temp ( °F °C ) Dew Point ( °F °C ) Humidity (%) Winds ( mph kmh ) Pressure ( in mb ) Visibility ( mi km ) Precip ( " mm )
12:54 am 00:54 Clear 37 2.8 34 1.1 89 89 Calm 30.36 1028 10 16.09344 0 0
1:54 am 01:54 Clear 38 3.3 35 1.7 89 89 Calm 30.36 1028 10 16.09344 0 0
2:54 am 02:54 Clear 39 3.9 36 2.2 89 89 Calm 30.36 1028 10 16.09344 0 0
3:54 am 03:54 Clear 37 2.8 34 1.1 89 89 SSE 6 9 30.36 1028 10 16.09344 0 0
4:54 am 04:54 Clear 36 2.2 34 1.1 93 93 SSE 5 7 30.36 1028 10 16.09344 0 0
5:54 am 05:54 Clear 37 2.8 34 1.1 89 89 SSE 5 7 30.36 1028 10 16.09344 0 0
6:54 am 06:54 Clear 37 2.8 34 1.1 89 89 Calm 30.36 1028 10 16.09344 0 0
7:54 am 07:54 Sunny 36 2.2 34 1.1 93 93 S 5 7 30.36 1028 10 16.09344 0 0
8:54 am 08:54 Sunny 41 5 37 2.8 86 86 SSE 3 6 30.36 1028 10 16.09344 0 0
9:54 am 09:54 Sunny 49 9.4 41 5 74 74 SSW 7 11 30.36 1028 10 16.09344 0 0
10:54 am 10:54 Sunny 59 15 42 5.6 54 54 S 10 17 30.33 1027 10 16.09344 0 0
11:54 am 11:54 Sunny 66 18.9 37 2.8 34 34 SW 13 20 30.3 1026 10 16.09344 0 0
12:54 pm 12:54 Sunny 70 21.1 39 3.9 32 32 SSW 13 20 30.24 1024 10 16.09344 0 0
1:54 pm 13:54 Sunny 72 22.2 34 1.1 25 25 SW 18 30 30.21 1023 10 16.09344 0 0
2:54 pm 14:54 Sunny 74 23.3 34 1.1 23 23 SSW 17 28 30.15 1021 10 16.09344 0 0
3:54 pm 15:54 Sunny 75 23.9 35 1.7 23 23 SSW 21 33 30.12 1020 10 16.09344 0 0
4:54 pm 16:54 Sunny 74 23.3 37 2.8 26 26 SSW 20 31 30.12 1020 10 16.09344 0 0
5:54 pm 17:54 Sunny 71 21.7 39 3.9 31 31 S 12 19 30.12 1020 10 16.09344 0 0
6:54 pm 18:54 Clear 62 16.7 39 3.9 43 43 S 12 19 30.12 1020 10 16.09344 0 0
7:54 pm 19:54 Clear 56 13.3 40 4.4 55 55 S 10 17 30.12 1020 10 16.09344 0 0
8:54 pm 20:54 Clear 57 13.9 42 5.6 58 58 S 12 19 30.12 1020 10 16.09344 0 0
9:54 pm 21:54 Clear 59 15 41 5 51 51 S 13 20 30.12 1020 10 16.09344 0 0
10:54 pm 22:54 Clear 59 15 40 4.4 49 49 S 14 22 30.12 1020 10 16.09344 0 0
11:54 pm 23:54 Clear 58 14.4 40 4.4 51 51 SSW 15 24 30.09 1019 10 16.09344 0 0

Powered by AerisWeather